Time,TemperatureF,DewpointF,PressureIn,WindDirection,WindDirectionDegrees,WindSpeedMPH,WindSpeedGustMPH,Humidity,HourlyPrecipIn,Conditions,Clouds,dailyrainin,SoftwareType,DateUTC
2013-07-05 00:04:00,75.7,47.7,28.35,SSE,158,5.8,5.8,37,0.00,,---,0.00,VWS V14.01,2013-07-05 05:04:00,
2013-07-05 00:09:00,75.7,47.7,28.35,South,174,3.1,5.8,37,0.00,,---,0.00,VWS V14.01,2013-07-05 05:09:00,
2013-07-05 00:14:00,75.6,47.5,28.35,SSE,161,3.1,8.3,37,0.00,,---,0.00,VWS V14.01,2013-07-05 05:14:00,
2013-07-05 00:19:00,75.6,47.5,28.35,South,181,2.7,8.3,37,0.00,,---,0.00,VWS V14.01,2013-07-05 05:19:00,
2013-07-05 00:24:00,75.4,47.3,28.35,SSE,159,2.7,8.3,37,0.00,,---,0.00,VWS V14.01,2013-07-05 05:24:00,
2013-07-05 00:29:00,75.4,47.3,28.35,South,186,3.6,8.3,37,0.00,,---,0.00,VWS V14.01,2013-07-05 05:29:00,
2013-07-05 00:35:00,75.2,47.2,28.35,SSE,155,4.9,8.3,37,0.00,,---,0.00,VWS V14.01,2013-07-05 05:35:00,
2013-07-05 00:40:00,75.2,47.9,28.35,SE,126,3.1,8.3,38,0.00,,---,0.00,VWS V14.01,2013-07-05 05:40:00,
2013-07-05 00:45:00,75.0,47.7,28.35,SE,135,4.0,8.3,38,0.00,,---,0.00,VWS V14.01,2013-07-05 05:45:00,
2013-07-05 00:50:00,75.0,47.7,28.35,South,186,2.7,8.3,38,0.00,,---,0.00,VWS V14.01,2013-07-05 05:50:00,
2013-07-05 00:55:00,74.8,48.2,28.35,SSE,147,5.4,8.3,39,0.00,,---,0.00,VWS V14.01,2013-07-05 05:55:00,
2013-07-05 01:00:00,74.8,48.2,28.35,SSE,160,0.0,3.1,39,0.00,,---,0.00,VWS V14.01,2013-07-05 06:00:00,
2013-07-05 01:05:00,74.7,48.8,28.35,SE,128,3.6,5.4,40,0.00,,---,0.00,VWS V14.01,2013-07-05 06:05:00,
2013-07-05 01:10:00,74.7,48.8,28.35,SSE,148,0.0,6.3,40,0.00,,---,0.00,VWS V14.01,2013-07-05 06:10:00,
2013-07-05 01:16:00,74.5,49.3,28.35,SSE,147,3.6,6.3,41,0.00,,---,0.00,VWS V14.01,2013-07-05 06:16:00,
2013-07-05 01:21:00,74.7,49.4,28.35,SE,127,3.1,6.3,41,0.00,,---,0.00,VWS V14.01,2013-07-05 06:21:00,
2013-07-05 01:26:00,74.7,49.4,28.35,SSE,152,2.7,6.3,41,0.00,,---,0.00,VWS V14.01,2013-07-05 06:26:00,
2013-07-05 01:31:00,74.7,49.4,28.35,SE,142,2.7,6.3,41,0.00,,---,0.00,VWS V14.01,2013-07-05 06:31:00,
2013-07-05 01:36:00,74.7,49.4,28.35,South,175,0.0,6.3,41,0.00,,---,0.00,VWS V14.01,2013-07-05 06:36:00,
2013-07-05 01:41:00,74.7,50.1,28.35,SSE,167,2.7,6.3,42,0.00,,---,0.00,VWS V14.01,2013-07-05 06:41:00,
2013-07-05 01:46:00,74.7,50.1,28.35,SE,137,0.0,6.3,42,0.00,,---,0.00,VWS V14.01,2013-07-05 06:46:00,
2013-07-05 01:51:00,74.7,50.1,28.35,SW,219,0.0,6.3,42,0.00,,---,0.00,VWS V14.01,2013-07-05 06:51:00,
2013-07-05 01:57:00,74.7,50.1,28.35,SE,141,3.1,6.3,42,0.00,,---,0.00,VWS V14.01,2013-07-05 06:57:00,
2013-07-05 02:02:00,74.7,50.7,28.35,SE,139,4.9,4.9,43,0.00,,---,0.00,VWS V14.01,2013-07-05 07:02:00,
2013-07-05 02:07:00,74.8,50.9,28.35,SSE,157,5.8,7.6,43,0.00,,---,0.00,VWS V14.01,2013-07-05 07:07:00,
2013-07-05 02:12:00,74.8,51.5,28.35,SSE,157,3.1,7.6,44,0.00,,---,0.00,VWS V14.01,2013-07-05 07:12:00,
2013-07-05 02:17:00,75.0,51.7,28.35,SW,235,3.6,7.6,44,0.00,,---,0.00,VWS V14.01,2013-07-05 07:17:00,
2013-07-05 02:22:00,75.2,51.8,28.35,ESE,111,3.1,7.6,44,0.00,,---,0.00,VWS V14.01,2013-07-05 07:22:00,
2013-07-05 02:27:00,75.2,51.8,28.35,SE,129,2.7,7.6,44,0.00,,---,0.00,VWS V14.01,2013-07-05 07:27:00,
2013-07-05 02:32:00,75.2,51.8,28.35,ESE,118,2.7,7.6,44,0.00,,---,0.00,VWS V14.01,2013-07-05 07:32:00,
2013-07-05 02:37:00,75.0,52.3,28.35,SE,145,4.0,7.6,45,0.00,,---,0.00,VWS V14.01,2013-07-05 07:37:00,
2013-07-05 02:43:00,74.8,52.1,28.35,SE,126,6.3,7.6,45,0.00,,---,0.00,VWS V14.01,2013-07-05 07:43:00,
2013-07-05 02:48:00,74.7,51.9,28.35,South,182,0.0,7.6,45,0.00,,---,0.00,VWS V14.01,2013-07-05 07:48:00,
2013-07-05 02:53:00,74.5,52.4,28.35,NNW,342,3.6,7.6,46,0.00,,---,0.00,VWS V14.01,2013-07-05 07:53:00,
2013-07-05 02:58:00,74.3,52.2,28.35,South,186,2.7,7.6,46,0.00,,---,0.00,VWS V14.01,2013-07-05 07:58:00,
2013-07-05 03:03:00,74.1,52.0,28.35,SSE,155,2.7,5.4,46,0.00,,---,0.00,VWS V14.01,2013-07-05 08:03:00,
2013-07-05 03:08:00,73.9,52.5,28.35,SSE,147,3.1,5.4,47,0.00,,---,0.00,VWS V14.01,2013-07-05 08:08:00,
2013-07-05 03:13:00,73.8,52.3,28.35,SSE,158,4.9,5.4,47,0.00,,---,0.00,VWS V14.01,2013-07-05 08:13:00,
2013-07-05 03:18:00,73.6,52.1,28.35,SSE,162,4.9,5.4,47,0.00,,---,0.00,VWS V14.01,2013-07-05 08:18:00,
2013-07-05 03:24:00,73.6,52.7,28.35,ESE,116,3.1,5.4,48,0.00,,---,0.00,VWS V14.01,2013-07-05 08:24:00,
2013-07-05 03:29:00,73.4,52.5,28.35,SE,131,3.6,5.4,48,0.00,,---,0.00,VWS V14.01,2013-07-05 08:29:00,
2013-07-05 03:34:00,73.4,52.5,28.35,SSE,158,4.9,7.6,48,0.00,,---,0.00,VWS V14.01,2013-07-05 08:34:00,
2013-07-05 03:39:00,73.2,52.9,28.35,SE,126,4.9,7.6,49,0.00,,---,0.00,VWS V14.01,2013-07-05 08:39:00,
2013-07-05 03:44:00,73.2,52.9,28.35,South,173,3.6,7.6,49,0.00,,---,0.00,VWS V14.01,2013-07-05 08:44:00,
2013-07-05 03:49:00,73.0,52.8,28.35,South,170,3.1,7.6,49,0.00,,---,0.00,VWS V14.01,2013-07-05 08:49:00,
2013-07-05 03:55:00,72.9,53.2,28.35,SSE,151,0.0,7.6,50,0.00,,---,0.00,VWS V14.01,2013-07-05 08:55:00,
2013-07-05 04:01:00,72.7,53.0,28.35,SSE,151,0.0,0.0,50,0.00,,---,0.00,VWS V14.01,2013-07-05 09:01:00,
2013-07-05 04:06:00,72.7,53.0,28.35,SSW,203,0.0,4.0,50,0.00,,---,0.00,VWS V14.01,2013-07-05 09:06:00,
2013-07-05 04:11:00,72.5,52.8,28.35,South,171,0.0,4.0,50,0.00,,---,0.00,VWS V14.01,2013-07-05 09:11:00,
2013-07-05 04:17:00,72.5,53.4,28.35,South,174,0.0,4.0,51,0.00,,---,0.00,VWS V14.01,2013-07-05 09:17:00,
2013-07-05 04:22:00,72.5,53.4,28.35,South,174,0.0,4.0,51,0.00,,---,0.00,VWS V14.01,2013-07-05 09:22:00,
2013-07-05 04:28:00,72.3,53.2,28.35,South,174,0.0,4.0,51,0.00,,---,0.00,VWS V14.01,2013-07-05 09:28:00,
2013-07-05 04:33:00,72.3,53.2,28.35,South,174,0.0,4.0,51,0.00,,---,0.00,VWS V14.01,2013-07-05 09:33:00,
2013-07-05 04:38:00,72.3,53.2,28.35,South,182,0.0,4.0,51,0.00,,---,0.00,VWS V14.01,2013-07-05 09:38:00,
2013-07-05 04:43:00,72.1,53.6,28.35,South,181,0.0,4.0,52,0.00,,---,0.00,VWS V14.01,2013-07-05 09:43:00,
2013-07-05 04:48:00,72.1,53.6,28.35,South,179,0.0,4.0,52,0.00,,---,0.00,VWS V14.01,2013-07-05 09:48:00,
2013-07-05 04:54:00,72.0,53.4,28.35,South,178,2.7,4.0,52,0.00,,---,0.00,VWS V14.01,2013-07-05 09:54:00,
2013-07-05 04:59:00,71.8,53.2,28.35,South,178,0.0,4.0,52,0.00,,---,0.00,VWS V14.01,2013-07-05 09:59:00,
2013-07-05 05:04:00,71.8,53.2,28.35,South,178,0.0,0.0,52,0.00,,---,0.00,VWS V14.01,2013-07-05 10:04:00,
2013-07-05 05:09:00,71.4,53.4,28.35,SSW,203,2.2,3.6,53,0.00,,---,0.00,VWS V14.01,2013-07-05 10:09:00,
2013-07-05 05:15:00,71.2,53.8,28.35,SSW,201,0.0,3.6,54,0.00,,---,0.00,VWS V14.01,2013-07-05 10:15:00,
2013-07-05 05:20:00,71.1,53.6,28.35,SSW,195,0.0,3.6,54,0.00,,---,0.00,VWS V14.01,2013-07-05 10:20:00,
2013-07-05 05:26:00,71.1,54.1,28.35,SE,139,2.7,4.0,55,0.00,,---,0.00,VWS V14.01,2013-07-05 10:26:00,
2013-07-05 05:31:00,70.9,53.9,28.35,SE,137,2.7,4.0,55,0.00,,---,0.00,VWS V14.01,2013-07-05 10:31:00,
2013-07-05 05:36:00,70.9,54.4,28.35,SE,129,3.1,4.0,56,0.00,,---,0.00,VWS V14.01,2013-07-05 10:36:00,
2013-07-05 05:41:00,70.7,54.2,28.35,SSE,148,3.1,5.8,56,0.00,,---,0.00,VWS V14.01,2013-07-05 10:41:00,
2013-07-05 05:47:00,70.7,54.2,28.35,SW,235,2.2,5.8,56,0.00,,---,0.00,VWS V14.01,2013-07-05 10:47:00,
2013-07-05 05:52:00,70.7,54.7,28.35,SSE,161,2.7,6.3,57,0.00,,---,0.00,VWS V14.01,2013-07-05 10:52:00,
2013-07-05 05:57:00,70.7,54.7,28.35,SSE,153,0.0,6.3,57,0.00,,---,0.00,VWS V14.01,2013-07-05 10:57:00,
2013-07-05 06:02:00,70.7,54.7,28.35,SSE,154,3.1,3.1,57,0.00,,---,0.00,VWS V14.01,2013-07-05 11:02:00,
2013-07-05 06:07:00,70.5,54.6,28.35,South,182,3.6,4.0,57,0.00,,---,0.00,VWS V14.01,2013-07-05 11:07:00,
2013-07-05 06:14:00,70.3,54.9,28.35,South,183,2.2,4.0,58,0.00,,---,0.00,VWS V14.01,2013-07-05 11:14:00,
2013-07-05 06:19:00,70.3,54.9,28.35,South,183,0.0,4.0,58,0.00,,---,0.00,VWS V14.01,2013-07-05 11:19:00,
2013-07-05 06:24:00,70.3,55.3,28.35,South,184,2.7,4.0,59,0.00,,---,0.00,VWS V14.01,2013-07-05 11:24:00,
2013-07-05 06:29:00,70.2,55.2,28.35,SSE,151,0.0,4.0,59,0.00,,---,0.00,VWS V14.01,2013-07-05 11:29:00,
2013-07-05 06:35:00,70.2,55.2,28.35,SSE,157,2.2,5.8,59,0.00,,---,0.00,VWS V14.01,2013-07-05 11:35:00,
2013-07-05 06:40:00,70.2,55.2,28.35,SE,141,3.1,5.8,59,0.00,,---,0.00,VWS V14.01,2013-07-05 11:40:00,
2013-07-05 06:45:00,70.3,55.3,28.35,SE,136,3.1,5.8,59,0.00,,---,0.00,VWS V14.01,2013-07-05 11:45:00,
2013-07-05 06:50:00,70.3,55.8,28.35,South,175,2.2,5.8,60,0.00,,---,0.00,VWS V14.01,2013-07-05 11:50:00,
2013-07-05 06:56:00,70.3,55.8,28.35,SSE,166,0.0,5.8,60,0.00,,---,0.00,VWS V14.01,2013-07-05 11:56:00,
2013-07-05 07:01:00,70.5,56.0,28.35,South,175,3.6,5.8,60,0.00,,---,0.00,VWS V14.01,2013-07-05 12:01:00,
2013-07-05 07:06:00,70.7,56.2,28.35,SSE,165,2.2,5.8,60,0.00,,---,0.00,VWS V14.01,2013-07-05 12:06:00,
2013-07-05 07:11:00,70.7,56.2,28.35,SSE,158,5.4,5.8,60,0.00,,---,0.00,VWS V14.01,2013-07-05 12:11:00,
2013-07-05 07:16:00,70.7,56.2,28.35,South,191,4.0,5.8,60,0.00,,---,0.00,VWS V14.01,2013-07-05 12:16:00,
2013-07-05 07:21:00,70.9,56.3,28.35,SE,135,5.4,6.3,60,0.00,,---,0.00,VWS V14.01,2013-07-05 12:21:00,
2013-07-05 07:27:00,71.1,56.0,28.35,SE,145,5.4,6.7,59,0.00,,---,0.00,VWS V14.01,2013-07-05 12:27:00,
2013-07-05 07:32:00,71.2,56.2,28.35,SE,146,2.2,6.7,59,0.00,,---,0.00,VWS V14.01,2013-07-05 12:32:00,
2013-07-05 07:37:00,71.6,56.1,28.35,SSE,154,2.7,6.7,58,0.00,,---,0.00,VWS V14.01,2013-07-05 12:37:00,
2013-07-05 07:43:00,72.0,56.4,28.35,ESE,122,3.6,6.7,58,0.00,,---,0.00,VWS V14.01,2013-07-05 12:43:00,
2013-07-05 07:48:00,72.9,56.8,28.35,South,170,3.1,6.7,57,0.00,,---,0.00,VWS V14.01,2013-07-05 12:48:00,
2013-07-05 07:53:00,73.2,56.1,28.35,ESE,106,4.9,7.2,55,0.00,,---,0.00,VWS V14.01,2013-07-05 12:53:00,
2013-07-05 07:59:00,73.8,56.1,28.35,SSE,155,3.6,7.2,54,0.00,,---,0.00,VWS V14.01,2013-07-05 12:59:00,
2013-07-05 08:04:00,74.1,55.9,28.35,SSE,149,3.1,8.1,53,0.00,,---,0.00,VWS V14.01,2013-07-05 13:04:00,
2013-07-05 08:09:00,74.7,55.9,28.35,SSE,150,3.1,8.1,52,0.00,,---,0.00,VWS V14.01,2013-07-05 13:09:00,
2013-07-05 08:14:00,75.0,55.7,28.35,South,177,7.6,8.1,51,0.00,,---,0.00,VWS V14.01,2013-07-05 13:14:00,
2013-07-05 08:19:00,74.7,54.8,28.35,SE,142,3.1,8.1,50,0.00,,---,0.00,VWS V14.01,2013-07-05 13:19:00,
2013-07-05 08:24:00,74.5,55.2,28.35,SE,142,3.1,8.1,51,0.00,,---,0.00,VWS V14.01,2013-07-05 13:24:00,
2013-07-05 08:30:00,74.5,55.2,28.35,SE,126,4.0,8.1,51,0.00,,---,0.00,VWS V14.01,2013-07-05 13:30:00,
2013-07-05 08:35:00,74.8,55.5,28.35,SSE,168,3.6,8.1,51,0.00,,---,0.00,VWS V14.01,2013-07-05 13:35:00,
2013-07-05 08:40:00,75.2,55.3,28.35,South,191,3.1,8.3,50,0.00,,---,0.00,VWS V14.01,2013-07-05 13:40:00,
2013-07-05 08:46:00,75.7,55.2,28.35,SE,126,3.6,8.3,49,0.00,,---,0.00,VWS V14.01,2013-07-05 13:46:00,
2013-07-05 08:51:00,76.5,55.3,28.35,SSE,147,4.0,8.3,48,0.00,,---,0.00,VWS V14.01,2013-07-05 13:51:00,
2013-07-05 08:56:00,76.5,54.8,28.35,SSE,165,3.1,8.3,47,0.00,,---,0.00,VWS V14.01,2013-07-05 13:56:00,
2013-07-05 09:02:00,77.4,55.0,28.35,ESE,115,2.7,5.8,46,0.00,,---,0.00,VWS V14.01,2013-07-05 14:02:00,
2013-07-05 09:07:00,78.6,54.9,28.35,SSW,192,5.8,8.3,44,0.00,,---,0.00,VWS V14.01,2013-07-05 14:07:00,
2013-07-05 09:12:00,79.2,54.1,28.35,ESE,118,3.1,9.2,42,0.00,,---,0.00,VWS V14.01,2013-07-05 14:12:00,
2013-07-05 09:17:00,80.1,54.9,28.35,ENE,61,3.1,9.2,42,0.00,,---,0.00,VWS V14.01,2013-07-05 14:17:00,
2013-07-05 09:22:00,80.6,54.1,28.35,South,186,8.1,9.2,40,0.00,,---,0.00,VWS V14.01,2013-07-05 14:22:00,
2013-07-05 09:27:00,80.8,54.2,28.35,SSE,156,4.0,9.2,40,0.00,,---,0.00,VWS V14.01,2013-07-05 14:27:00,
2013-07-05 09:32:00,81.1,53.9,28.35,SE,142,8.1,9.2,39,0.00,,---,0.00,VWS V14.01,2013-07-05 14:32:00,
2013-07-05 09:38:00,81.5,54.2,28.35,SSE,156,6.7,9.2,39,0.00,,---,0.00,VWS V14.01,2013-07-05 14:38:00,
2013-07-05 09:43:00,82.0,53.2,28.35,ENE,78,2.7,9.2,37,0.00,,---,0.00,VWS V14.01,2013-07-05 14:43:00,
2013-07-05 09:48:00,82.6,53.0,28.35,SE,144,6.3,11.0,36,0.00,,---,0.00,VWS V14.01,2013-07-05 14:48:00,
2013-07-05 09:54:00,82.9,53.3,28.35,SE,129,3.1,11.0,36,0.00,,---,0.00,VWS V14.01,2013-07-05 14:54:00,
2013-07-05 09:59:00,83.3,52.8,28.35,SE,145,5.8,11.0,35,0.00,,---,0.00,VWS V14.01,2013-07-05 14:59:00,
2013-07-05 10:04:00,83.5,52.2,28.35,SSE,163,4.9,10.1,34,0.00,,---,0.00,VWS V14.01,2013-07-05 15:04:00,
2013-07-05 10:10:00,83.7,52.3,28.35,SE,138,5.8,10.1,34,0.00,,---,0.00,VWS V14.01,2013-07-05 15:10:00,
2013-07-05 10:15:00,84.0,51.8,28.35,SSE,153,5.8,10.1,33,0.00,,---,0.00,VWS V14.01,2013-07-05 15:15:00,
2013-07-05 10:20:00,84.2,51.2,28.35,SSE,147,10.1,10.5,32,0.00,,---,0.00,VWS V14.01,2013-07-05 15:20:00,
2013-07-05 10:25:00,84.4,52.2,28.35,SE,141,8.3,10.5,33,0.00,,---,0.00,VWS V14.01,2013-07-05 15:25:00,
2013-07-05 10:30:00,84.6,51.5,28.35,SSE,152,6.7,11.0,32,0.00,,---,0.00,VWS V14.01,2013-07-05 15:30:00,
2013-07-05 10:35:00,84.9,51.8,28.35,ESE,117,5.4,11.0,32,0.00,,---,0.00,VWS V14.01,2013-07-05 15:35:00,
2013-07-05 10:40:00,85.1,51.1,28.35,SE,126,6.3,11.0,31,0.00,,---,0.00,VWS V14.01,2013-07-05 15:40:00,
2013-07-05 10:45:00,85.3,52.1,28.35,SSE,150,8.1,11.0,32,0.00,,---,0.00,VWS V14.01,2013-07-05 15:45:00,
2013-07-05 10:50:00,85.3,51.2,28.35,ESE,122,13.6,14.1,31,0.00,,---,0.00,VWS V14.01,2013-07-05 15:50:00,
2013-07-05 10:55:00,85.3,51.2,28.35,SE,145,8.1,14.1,31,0.00,,---,0.00,VWS V14.01,2013-07-05 15:55:00,
2013-07-05 11:00:00,85.5,51.4,28.35,ESE,106,6.3,9.2,31,0.00,,---,0.00,VWS V14.01,2013-07-05 16:00:00,
2013-07-05 11:05:00,85.8,51.7,28.35,South,169,4.0,10.5,31,0.00,,---,0.00,VWS V14.01,2013-07-05 16:05:00,
2013-07-05 11:10:00,86.4,52.2,28.35,SSW,208,5.8,10.5,31,0.00,,---,0.00,VWS V14.01,2013-07-05 16:10:00,
2013-07-05 11:16:00,86.9,51.8,28.35,SE,130,3.6,10.5,30,0.00,,---,0.00,VWS V14.01,2013-07-05 16:16:00,
2013-07-05 11:21:00,87.1,51.0,28.35,SE,141,4.0,10.5,29,0.00,,---,0.00,VWS V14.01,2013-07-05 16:21:00,
2013-07-05 11:23:00,87.1,51.9,28.32,ESE,119,10.1,10.5,30,0.00,,---,0.00,VWS V14.01,2013-07-05 16:23:00,
2013-07-05 11:28:00,87.1,51.0,28.32,ESE,107,4.9,10.5,29,0.00,,---,0.00,VWS V14.01,2013-07-05 16:28:00,
2013-07-05 11:33:00,87.3,52.1,28.32,ESE,119,3.1,10.5,30,0.00,,---,0.00,VWS V14.01,2013-07-05 16:33:00,
2013-07-05 11:38:00,87.8,51.6,28.32,West,262,5.8,10.5,29,0.00,,---,0.00,VWS V14.01,2013-07-05 16:38:00,
2013-07-05 11:43:00,88.0,51.8,28.32,South,189,6.3,10.5,29,0.00,,---,0.00,VWS V14.01,2013-07-05 16:43:00,
2013-07-05 11:48:00,88.0,51.8,28.32,ESE,113,8.3,11.0,29,0.00,,---,0.00,VWS V14.01,2013-07-05 16:48:00,
2013-07-05 11:53:00,88.0,51.8,28.32,SSE,155,8.3,11.0,29,0.00,,---,0.00,VWS V14.01,2013-07-05 16:53:00,
2013-07-05 11:59:00,88.2,51.9,28.32,SE,127,5.4,11.0,29,0.00,,---,0.00,VWS V14.01,2013-07-05 16:59:00,
2013-07-05 12:04:00,88.5,52.2,28.32,East,88,5.4,9.6,29,0.00,,---,0.00,VWS V14.01,2013-07-05 17:04:00,
2013-07-05 12:09:00,88.7,52.4,28.32,ESE,114,3.1,9.6,29,0.00,,---,0.00,VWS V14.01,2013-07-05 17:09:00,
2013-07-05 12:14:00,88.9,52.5,28.32,SE,139,12.8,12.8,29,0.00,,---,0.00,VWS V14.01,2013-07-05 17:14:00,
2013-07-05 12:20:00,88.7,52.4,28.32,SSE,156,5.8,13.2,29,0.00,,---,0.00,VWS V14.01,2013-07-05 17:20:00,
2013-07-05 12:25:00,88.9,52.5,28.32,East,88,2.2,13.2,29,0.00,,---,0.00,VWS V14.01,2013-07-05 17:25:00,
2013-07-05 12:30:00,89.2,52.9,28.32,ESE,119,8.7,13.2,29,0.00,,---,0.00,VWS V14.01,2013-07-05 17:30:00,
2013-07-05 12:35:00,89.6,52.2,28.32,SSE,165,8.3,13.2,28,0.00,,---,0.00,VWS V14.01,2013-07-05 17:35:00,
2013-07-05 12:40:00,89.8,52.4,28.32,North,7,4.9,13.2,28,0.00,,---,0.00,VWS V14.01,2013-07-05 17:40:00,
2013-07-05 12:45:00,89.6,52.2,28.32,SSW,194,8.7,13.2,28,0.00,,---,0.00,VWS V14.01,2013-07-05 17:45:00,
2013-07-05 12:50:00,89.6,52.2,28.32,ENE,74,5.8,13.2,28,0.00,,---,0.00,VWS V14.01,2013-07-05 17:50:00,
2013-07-05 12:55:00,90.1,52.7,28.32,WSW,245,4.0,14.5,28,0.00,,---,0.00,VWS V14.01,2013-07-05 17:55:00,
2013-07-05 13:01:00,90.7,53.1,28.32,SE,128,8.3,8.7,28,0.00,,---,0.00,VWS V14.01,2013-07-05 18:01:00,
2013-07-05 13:06:00,91.2,52.6,28.32,SSE,149,8.1,8.7,27,0.00,,---,0.00,VWS V14.01,2013-07-05 18:06:00,
2013-07-05 13:11:00,91.6,52.9,28.32,SSE,157,6.3,9.2,27,0.00,,---,0.00,VWS V14.01,2013-07-05 18:11:00,
2013-07-05 13:16:00,91.9,52.2,28.32,East,90,4.0,9.2,26,0.00,,---,0.00,VWS V14.01,2013-07-05 18:16:00,
2013-07-05 13:21:00,92.1,50.2,28.32,SE,128,6.3,9.2,24,0.00,,---,0.00,VWS V14.01,2013-07-05 18:21:00,
2013-07-05 13:26:00,91.9,51.1,28.32,SE,142,8.1,9.2,25,0.00,,---,0.00,VWS V14.01,2013-07-05 18:26:00,
2013-07-05 13:27:00,91.9,51.1,28.32,SE,142,3.6,9.2,25,0.00,,---,0.00,VWS V14.01,2013-07-05 18:27:00,
2013-07-05 13:32:00,91.9,51.1,28.32,SE,131,7.6,11.0,25,0.00,,---,0.00,VWS V14.01,2013-07-05 18:32:00,
2013-07-05 13:37:00,92.1,50.2,28.32,ESE,110,3.6,12.8,24,0.00,,---,0.00,VWS V14.01,2013-07-05 18:37:00,
2013-07-05 13:42:00,92.3,50.3,28.32,ESE,118,3.1,12.8,24,0.00,,---,0.00,VWS V14.01,2013-07-05 18:42:00,
2013-07-05 13:48:00,92.3,50.3,28.32,SSE,153,5.8,12.8,24,0.00,,---,0.00,VWS V14.01,2013-07-05 18:48:00,
2013-07-05 13:49:00,92.3,50.3,28.32,East,100,4.0,12.8,24,0.00,,---,0.00,VWS V14.01,2013-07-05 18:49:00,
2013-07-05 13:54:00,92.5,49.3,28.32,SSE,165,3.6,12.8,23,0.00,,---,0.00,VWS V14.01,2013-07-05 18:54:00,
2013-07-05 13:59:00,92.7,49.5,28.32,SE,139,4.0,12.8,23,0.00,,---,0.00,VWS V14.01,2013-07-05 18:59:00,
2013-07-05 14:04:00,93.0,49.8,28.32,SE,138,9.6,9.6,23,0.00,,---,0.00,VWS V14.01,2013-07-05 19:04:00,
2013-07-05 14:10:00,93.2,48.7,28.29,ESE,107,4.9,12.8,22,0.00,,---,0.00,VWS V14.01,2013-07-05 19:10:00,
2013-07-05 14:15:00,93.6,49.0,28.29,South,189,6.3,12.8,22,0.00,,---,0.00,VWS V14.01,2013-07-05 19:15:00,
2013-07-05 14:20:00,93.6,50.2,28.29,SE,131,4.9,12.8,23,0.00,,---,0.00,VWS V14.01,2013-07-05 19:20:00,
2013-07-05 14:25:00,93.6,49.0,28.29,ESE,113,6.3,12.8,22,0.00,,---,0.00,VWS V14.01,2013-07-05 19:25:00,
2013-07-05 14:30:00,93.4,48.9,28.29,ESE,111,6.7,12.8,22,0.00,,---,0.00,VWS V14.01,2013-07-05 19:30:00,
2013-07-05 14:32:00,93.4,50.1,28.29,SW,214,5.8,12.8,23,0.00,,---,0.00,VWS V14.01,2013-07-05 19:32:00,
2013-07-05 14:37:00,93.6,49.0,28.29,ESE,114,6.7,12.8,22,0.00,,---,0.00,VWS V14.01,2013-07-05 19:37:00,
2013-07-05 14:42:00,93.6,49.0,28.29,ESE,117,4.0,13.6,22,0.00,,---,0.00,VWS V14.01,2013-07-05 19:42:00,
2013-07-05 14:47:00,93.6,49.0,28.29,South,174,8.3,13.6,22,0.00,,---,0.00,VWS V14.01,2013-07-05 19:47:00,
2013-07-05 14:52:00,93.7,49.2,28.29,ESE,115,4.9,13.6,22,0.00,,---,0.00,VWS V14.01,2013-07-05 19:52:00,
2013-07-05 14:57:00,93.7,49.2,28.29,WNW,300,3.6,13.6,22,0.00,,---,0.00,VWS V14.01,2013-07-05 19:57:00,
2013-07-05 15:02:00,93.6,49.0,28.29,SE,134,2.7,10.1,22,0.00,,---,0.00,VWS V14.01,2013-07-05 20:02:00,
2013-07-05 15:08:00,93.6,49.0,28.29,SSE,166,5.8,10.1,22,0.00,,---,0.00,VWS V14.01,2013-07-05 20:08:00,
2013-07-05 15:13:00,93.7,49.2,28.29,SE,143,8.3,10.1,22,0.00,,---,0.00,VWS V14.01,2013-07-05 20:13:00,
2013-07-05 15:18:00,93.7,49.2,28.29,SSE,155,5.4,10.1,22,0.00,,---,0.00,VWS V14.01,2013-07-05 20:18:00,
2013-07-05 15:19:00,93.7,49.2,28.29,ESE,113,5.4,10.1,22,0.00,,---,0.00,VWS V14.01,2013-07-05 20:19:00,
2013-07-05 15:24:00,93.7,48.0,28.29,SE,130,2.7,12.3,21,0.00,,---,0.00,VWS V14.01,2013-07-05 20:24:00,
2013-07-05 15:29:00,93.4,47.7,28.29,SSW,194,7.6,12.3,21,0.00,,---,0.00,VWS V14.01,2013-07-05 20:29:00,
2013-07-05 15:34:00,93.2,47.5,28.29,ESE,119,2.7,12.3,21,0.00,,---,0.00,VWS V14.01,2013-07-05 20:34:00,
2013-07-05 15:39:00,93.0,48.6,28.29,ESE,123,6.3,12.3,22,0.00,,---,0.00,VWS V14.01,2013-07-05 20:39:00,
2013-07-05 15:44:00,92.7,48.3,28.29,SE,133,4.0,12.3,22,0.00,,---,0.00,VWS V14.01,2013-07-05 20:44:00,
2013-07-05 15:50:00,92.7,48.3,28.29,ESE,116,5.8,12.8,22,0.00,,---,0.00,VWS V14.01,2013-07-05 20:50:00,
2013-07-05 15:55:00,92.7,49.5,28.29,SE,131,7.2,12.8,23,0.00,,---,0.00,VWS V14.01,2013-07-05 20:55:00,
2013-07-05 16:00:00,92.3,49.2,28.29,SE,137,3.6,5.8,23,0.00,,---,0.00,VWS V14.01,2013-07-05 21:00:00,
2013-07-05 16:05:00,92.3,49.2,28.29,SSE,154,6.3,7.6,23,0.00,,---,0.00,VWS V14.01,2013-07-05 21:05:00,
2013-07-05 16:07:00,92.1,49.0,28.29,SE,133,8.7,8.7,23,0.00,,---,0.00,VWS V14.01,2013-07-05 21:07:00,
2013-07-05 16:12:00,92.3,49.2,28.29,SE,139,6.3,9.6,23,0.00,,---,0.00,VWS V14.01,2013-07-05 21:12:00,
2013-07-05 16:17:00,92.3,49.2,28.29,South,186,4.0,9.6,23,0.00,,---,0.00,VWS V14.01,2013-07-05 21:17:00,
2013-07-05 16:22:00,92.5,48.2,28.29,SE,127,5.8,9.6,22,0.00,,---,0.00,VWS V14.01,2013-07-05 21:22:00,
2013-07-05 16:27:00,92.3,48.0,28.29,East,101,5.8,9.6,22,0.00,,---,0.00,VWS V14.01,2013-07-05 21:27:00,
2013-07-05 16:32:00,91.9,47.7,28.29,South,187,7.6,9.6,22,0.00,,---,0.00,VWS V14.01,2013-07-05 21:32:00,
2013-07-05 16:37:00,91.8,48.7,28.29,SSE,160,8.7,9.6,23,0.00,,---,0.00,VWS V14.01,2013-07-05 21:37:00,
2013-07-05 16:42:00,91.8,48.7,28.29,NE,56,4.0,9.6,23,0.00,,---,0.00,VWS V14.01,2013-07-05 21:42:00,
2013-07-05 16:48:00,91.8,48.7,28.29,SW,236,6.3,9.6,23,0.00,,---,0.00,VWS V14.01,2013-07-05 21:48:00,
2013-07-05 16:53:00,91.8,47.5,28.26,ESE,117,3.6,12.3,22,0.00,,---,0.00,VWS V14.01,2013-07-05 21:53:00,
2013-07-05 16:58:00,91.8,48.7,28.26,SE,131,3.6,12.3,23,0.00,,---,0.00,VWS V14.01,2013-07-05 21:58:00,
2013-07-05 17:03:00,91.8,47.5,28.26,SW,215,4.9,8.1,22,0.00,,---,0.00,VWS V14.01,2013-07-05 22:03:00,
2013-07-05 17:08:00,91.8,48.7,28.26,SE,141,8.1,12.3,23,0.00,,---,0.00,VWS V14.01,2013-07-05 22:08:00,
2013-07-05 17:13:00,91.4,48.4,28.26,ESE,115,6.3,12.3,23,0.00,,---,0.00,VWS V14.01,2013-07-05 22:13:00,
2013-07-05 17:18:00,91.2,48.3,28.26,ESE,104,6.3,12.3,23,0.00,,---,0.00,VWS V14.01,2013-07-05 22:18:00,
2013-07-05 17:23:00,91.4,48.4,28.26,North,357,4.9,12.3,23,0.00,,---,0.00,VWS V14.01,2013-07-05 22:23:00,
2013-07-05 17:28:00,91.4,48.4,28.26,NNE,27,4.0,12.3,23,0.00,,---,0.00,VWS V14.01,2013-07-05 22:28:00,
2013-07-05 17:34:00,91.4,48.4,28.26,SSE,168,4.0,12.3,23,0.00,,---,0.00,VWS V14.01,2013-07-05 22:34:00,
2013-07-05 17:39:00,91.4,48.4,28.26,ESE,105,4.5,12.3,23,0.00,,---,0.00,VWS V14.01,2013-07-05 22:39:00,
2013-07-05 17:45:00,91.2,49.4,28.26,SSE,151,6.7,12.3,24,0.00,,---,0.00,VWS V14.01,2013-07-05 22:45:00,
2013-07-05 17:50:00,91.0,49.3,28.26,SE,144,6.3,12.3,24,0.00,,---,0.00,VWS V14.01,2013-07-05 22:50:00,
2013-07-05 17:55:00,91.0,49.3,28.26,SSW,201,4.0,12.3,24,0.00,,---,0.00,VWS V14.01,2013-07-05 22:55:00,
2013-07-05 18:00:00,90.9,48.0,28.26,SSE,161,4.0,5.4,23,0.00,,---,0.00,VWS V14.01,2013-07-05 23:00:00,
2013-07-05 18:05:00,90.9,48.0,28.26,SE,130,5.4,8.1,23,0.00,,---,0.00,VWS V14.01,2013-07-05 23:05:00,
2013-07-05 18:10:00,90.9,48.0,28.26,NNE,12,4.0,8.1,23,0.00,,---,0.00,VWS V14.01,2013-07-05 23:10:00,
2013-07-05 18:15:00,90.9,48.0,28.26,ESE,118,4.0,8.1,23,0.00,,---,0.00,VWS V14.01,2013-07-05 23:15:00,
2013-07-05 18:20:00,90.7,47.8,28.26,WSW,237,5.4,8.1,23,0.00,,---,0.00,VWS V14.01,2013-07-05 23:20:00,
2013-07-05 18:22:00,90.7,47.8,28.26,SSW,196,5.8,8.1,23,0.00,,---,0.00,VWS V14.01,2013-07-05 23:22:00,
2013-07-05 18:27:00,90.5,48.8,28.26,SE,138,5.4,8.1,24,0.00,,---,0.00,VWS V14.01,2013-07-05 23:27:00,
2013-07-05 18:33:00,90.5,47.7,28.26,SSE,165,5.4,8.1,23,0.00,,---,0.00,VWS V14.01,2013-07-05 23:33:00,
2013-07-05 18:38:00,90.1,47.4,28.26,South,187,8.7,8.7,23,0.00,,---,0.00,VWS V14.01,2013-07-05 23:38:00,
2013-07-05 18:43:00,90.0,48.4,28.26,SSE,151,7.6,8.7,24,0.00,,---,0.00,VWS V14.01,2013-07-05 23:43:00,
2013-07-05 18:48:00,89.6,46.9,28.26,ESE,121,5.8,8.7,23,0.00,,---,0.00,VWS V14.01,2013-07-05 23:48:00,
2013-07-05 18:53:00,89.2,47.8,28.26,South,176,5.8,8.7,24,0.00,,---,0.00,VWS V14.01,2013-07-05 23:53:00,
2013-07-05 18:58:00,89.2,48.8,28.26,SE,135,4.0,8.7,25,0.00,,---,0.00,VWS V14.01,2013-07-05 23:58:00,
2013-07-05 19:03:00,89.2,47.8,28.26,SE,132,4.0,8.7,24,0.00,,---,0.00,VWS V14.01,2013-07-06 00:03:00,
2013-07-05 19:08:00,89.2,48.8,28.26,SSE,160,5.4,8.7,25,0.00,,---,0.00,VWS V14.01,2013-07-06 00:08:00,
2013-07-05 19:13:00,89.2,48.8,28.26,ESE,120,4.9,8.7,25,0.00,,---,0.00,VWS V14.01,2013-07-06 00:13:00,
2013-07-05 19:19:00,89.4,47.9,28.26,SE,130,5.8,8.7,24,0.00,,---,0.00,VWS V14.01,2013-07-06 00:19:00,
2013-07-05 19:24:00,89.4,49.0,28.26,ESE,123,2.7,8.7,25,0.00,,---,0.00,VWS V14.01,2013-07-06 00:24:00,
2013-07-05 19:29:00,89.4,49.0,28.26,ESE,122,3.6,8.7,25,0.00,,---,0.00,VWS V14.01,2013-07-06 00:29:00,
2013-07-05 19:34:00,89.2,48.8,28.26,SSE,152,3.1,8.7,25,0.00,,---,0.00,VWS V14.01,2013-07-06 00:34:00,
2013-07-05 19:39:00,89.2,48.8,28.26,SSE,161,4.0,8.7,25,0.00,,---,0.00,VWS V14.01,2013-07-06 00:39:00,
2013-07-05 19:44:00,88.9,47.5,28.26,SE,135,5.4,10.1,24,0.00,,---,0.00,VWS V14.01,2013-07-06 00:44:00,
2013-07-05 19:49:00,88.5,48.2,28.26,South,190,3.1,10.1,25,0.00,,---,0.00,VWS V14.01,2013-07-06 00:49:00,
2013-07-05 19:54:00,88.2,47.9,28.26,East,81,2.2,10.1,25,0.00,,---,0.00,VWS V14.01,2013-07-06 00:54:00,
2013-07-05 20:00:00,87.8,47.6,28.26,SSE,154,3.1,10.1,25,0.00,,---,0.00,VWS V14.01,2013-07-06 01:00:00,
2013-07-05 20:05:00,87.6,48.5,28.26,South,187,3.6,6.3,26,0.00,,---,0.00,VWS V14.01,2013-07-06 01:05:00,
2013-07-05 20:10:00,87.4,48.4,28.26,SSW,196,2.7,6.3,26,0.00,,---,0.00,VWS V14.01,2013-07-06 01:10:00,
2013-07-05 20:15:00,87.1,48.1,28.26,SE,140,4.0,6.3,26,0.00,,---,0.00,VWS V14.01,2013-07-06 01:15:00,
2013-07-05 20:16:00,87.1,48.1,28.26,SE,142,2.7,6.3,26,0.00,,---,0.00,VWS V14.01,2013-07-06 01:16:00,
2013-07-05 20:21:00,86.9,47.9,28.26,SSE,160,4.0,6.3,26,0.00,,---,0.00,VWS V14.01,2013-07-06 01:21:00,
2013-07-05 20:26:00,86.5,47.6,28.26,ESE,108,3.6,6.7,26,0.00,,---,0.00,VWS V14.01,2013-07-06 01:26:00,
2013-07-05 20:31:00,86.4,47.5,28.26,SSE,166,2.7,6.7,26,0.00,,---,0.00,VWS V14.01,2013-07-06 01:31:00,
2013-07-05 20:36:00,86.2,47.3,28.26,South,172,2.7,6.7,26,0.00,,---,0.00,VWS V14.01,2013-07-06 01:36:00,
2013-07-05 20:42:00,85.8,48.0,28.26,ENE,68,2.7,6.7,27,0.00,,---,0.00,VWS V14.01,2013-07-06 01:42:00,
2013-07-05 20:47:00,85.5,48.7,28.26,SSE,161,2.7,7.2,28,0.00,,---,0.00,VWS V14.01,2013-07-06 01:47:00,
2013-07-05 20:52:00,85.1,48.4,28.26,SSW,203,2.2,8.3,28,0.00,,---,0.00,VWS V14.01,2013-07-06 01:52:00,
2013-07-05 20:57:00,84.6,47.9,28.26,SSW,210,3.1,8.3,28,0.00,,---,0.00,VWS V14.01,2013-07-06 01:57:00,
2013-07-05 21:02:00,84.4,48.7,28.26,South,186,0.0,3.1,29,0.00,,---,0.00,VWS V14.01,2013-07-06 02:02:00,
2013-07-05 21:07:00,84.0,48.4,28.26,South,190,2.7,3.1,29,0.00,,---,0.00,VWS V14.01,2013-07-06 02:07:00,
2013-07-05 21:12:00,83.7,48.1,28.26,South,170,4.9,4.9,29,0.00,,---,0.00,VWS V14.01,2013-07-06 02:12:00,
2013-07-05 21:17:00,83.3,48.7,28.26,SSE,147,3.1,8.7,30,0.00,,---,0.00,VWS V14.01,2013-07-06 02:17:00,
2013-07-05 21:23:00,82.9,48.3,28.26,South,185,0.0,8.7,30,0.00,,---,0.00,VWS V14.01,2013-07-06 02:23:00,
2013-07-05 21:25:00,82.8,48.2,28.26,NNW,331,3.1,8.7,30,0.00,,---,0.00,VWS V14.01,2013-07-06 02:25:00,
2013-07-05 21:30:00,82.6,48.0,28.26,SE,141,2.2,8.7,30,0.00,,---,0.00,VWS V14.01,2013-07-06 02:30:00,
2013-07-05 21:35:00,82.2,48.6,28.26,SE,140,3.6,8.7,31,0.00,,---,0.00,VWS V14.01,2013-07-06 02:35:00,
2013-07-05 21:40:00,82.0,48.5,28.29,SE,133,3.1,8.7,31,0.00,,---,0.00,VWS V14.01,2013-07-06 02:40:00,
2013-07-05 21:45:00,81.9,48.3,28.29,SSE,154,2.2,8.7,31,0.00,,---,0.00,VWS V14.01,2013-07-06 02:45:00,
2013-07-05 21:50:00,81.7,49.0,28.29,ESE,110,6.3,8.7,32,0.00,,---,0.00,VWS V14.01,2013-07-06 02:50:00,
2013-07-05 21:56:00,81.3,48.7,28.29,SSW,195,0.0,8.7,32,0.00,,---,0.00,VWS V14.01,2013-07-06 02:56:00,
2013-07-05 22:01:00,81.1,48.5,28.29,South,183,4.9,5.8,32,0.00,,---,0.00,VWS V14.01,2013-07-06 03:01:00,
2013-07-05 22:06:00,81.1,48.5,28.29,ESE,119,2.7,7.6,32,0.00,,---,0.00,VWS V14.01,2013-07-06 03:06:00,
2013-07-05 22:11:00,81.1,48.5,28.29,SSE,154,5.4,7.6,32,0.00,,---,0.00,VWS V14.01,2013-07-06 03:11:00,
2013-07-05 22:16:00,81.0,49.2,28.29,SE,138,5.8,7.6,33,0.00,,---,0.00,VWS V14.01,2013-07-06 03:16:00,
2013-07-05 22:21:00,81.0,48.4,28.29,ESE,123,3.1,7.6,32,0.00,,---,0.00,VWS V14.01,2013-07-06 03:21:00,
2013-07-05 22:26:00,81.0,49.2,28.29,SE,124,2.7,7.6,33,0.00,,---,0.00,VWS V14.01,2013-07-06 03:26:00,
2013-07-05 22:31:00,80.8,49.0,28.29,SSE,155,3.1,8.1,33,0.00,,---,0.00,VWS V14.01,2013-07-06 03:31:00,
2013-07-05 22:37:00,80.8,49.0,28.29,ESE,107,2.7,8.1,33,0.00,,---,0.00,VWS V14.01,2013-07-06 03:37:00,
2013-07-05 22:42:00,80.6,48.9,28.29,SE,138,4.0,8.1,33,0.00,,---,0.00,VWS V14.01,2013-07-06 03:42:00,
2013-07-05 22:47:00,80.6,48.9,28.29,SSE,156,2.7,8.1,33,0.00,,---,0.00,VWS V14.01,2013-07-06 03:47:00,
2013-07-05 22:52:00,80.4,48.7,28.29,SSE,162,3.6,8.1,33,0.00,,---,0.00,VWS V14.01,2013-07-06 03:52:00,
2013-07-05 22:58:00,80.4,48.7,28.29,South,173,3.1,8.1,33,0.00,,---,0.00,VWS V14.01,2013-07-06 03:58:00,
2013-07-05 23:01:00,80.2,48.5,28.29,SSE,166,2.7,4.0,33,0.00,,---,0.00,VWS V14.01,2013-07-06 04:01:00,
2013-07-05 23:02:00,80.2,48.5,28.29,SSE,150,3.6,5.4,33,0.00,,---,0.00,VWS V14.01,2013-07-06 04:02:00,
2013-07-05 23:03:00,80.2,48.5,28.29,ESE,113,2.7,5.8,33,0.00,,---,0.00,VWS V14.01,2013-07-06 04:03:00,
2013-07-05 23:09:00,80.1,48.4,28.29,SE,138,4.0,6.3,33,0.00,,---,0.00,VWS V14.01,2013-07-06 04:09:00,
2013-07-05 23:14:00,79.9,49.0,28.29,SSE,152,2.2,6.3,34,0.00,,---,0.00,VWS V14.01,2013-07-06 04:14:00,
2013-07-05 23:19:00,79.7,48.9,28.29,SSE,155,2.7,6.3,34,0.00,,---,0.00,VWS V14.01,2013-07-06 04:19:00,
2013-07-05 23:24:00,79.7,48.9,28.29,ESE,119,3.1,6.3,34,0.00,,---,0.00,VWS V14.01,2013-07-06 04:24:00,
2013-07-05 23:29:00,79.5,48.7,28.29,South,178,0.0,7.2,34,0.00,,---,0.00,VWS V14.01,2013-07-06 04:29:00,
2013-07-05 23:34:00,79.2,49.2,28.29,SE,131,2.7,7.2,35,0.00,,---,0.00,VWS V14.01,2013-07-06 04:34:00,
2013-07-05 23:39:00,79.0,49.0,28.29,SE,125,3.6,7.2,35,0.00,,---,0.00,VWS V14.01,2013-07-06 04:39:00,
2013-07-05 23:44:00,78.8,49.6,28.29,South,177,4.0,7.2,36,0.00,,---,0.00,VWS V14.01,2013-07-06 04:44:00,
2013-07-05 23:50:00,78.4,50.8,28.29,SSE,168,3.1,8.3,38,0.00,,---,0.00,VWS V14.01,2013-07-06 04:50:00,
2013-07-05 23:55:00,78.3,50.6,28.29,ESE,114,3.1,8.3,38,0.00,,---,0.00,VWS V14.01,2013-07-06 04:55:00,